User: anonymous   Login
Location: *
(43.9905°S, 176.4941°W)
Time: 06:39:20
(UTC+00:00)
Language:

SPOT 3 Rocket - Orbit

View from above orbital plane
View from above orbital plane
View from above satellite
View from above satellite

Ground track
Ground track

The orbit data is extracted from the following two-line orbital elements,

1 22830U 93061H   20049.70584993 -.00000028 +00000-0 +66436-5 0  9995
2 22830 098.7835 097.6791 0010074 316.7229 043.3162 14.31444489377691
Epoch (UTC): 18 February 2020 16:56:25
Eccentricity: 0.0010074
inclination: 98.7835°
perigee height: 779 km
apogee height: 794 km
right ascension of ascending node: 97.6791°
argument of perigee: 316.7229°
revolutions per day: 14.31444489
mean anomaly at epoch: 43.3162°
orbit number at epoch: 37769

The dashed part of the orbit path shows where the satellite is in the earth's shadow,  

DLR